Regional Weather Roundup
Issued by NWS Charleston, SC

Current Version | Previous Version | Text Only | Print | Product List | Glossary Off
Versions: 1 2 3 4 5 6 7 8 9 10 11 12 13 14 15 16 17 18 19 20 21 22 23 24 25 26 27 28 29 30 31 32 33 34 35 36 37 38 39 40 41 42 43 44 45 46 47 48 49 50

000
ASUS42 KCHS 251012
RWRCHS

REGIONAL WEATHER ROUNDUP
NATIONAL WEATHER SERVICE CHARLESTON SC
600 AM EDT TUE APR 25 2017

NOTE: "FAIR" INDICATES FEW OR NO CLOUDS BELOW 12,000 FEET WITH NO
SIGNIFICANT WEATHER AND/OR OBSTRUCTIONS TO VISIBILITY.

NOT ALL STATIONS ARE QUALITY CONTROLLED. USE DATA WITH CAUTION...
ESPECIALLY DEWPOINT OBSERVATIONS.

SCZ027-030-031-034>040-042>050-251100-
...SOUTHEAST SOUTH CAROLINA...

CITY           SKY/WX    TMP DP  RH WIND       PRES   REMARKS
N CHARLESTON   MOCLDY    58  56  93 NW9       29.63S
WATERFRONT PRK   N/A     61  59  93 NW6       29.62R
JOHNS ISLAND   DRIZZLE   61  59  94 W7        29.63R
PINOPOLIS        N/A     61  57  88 W12       29.53R
MONCKS CORNER  CLOUDY    57  55  94 NW3       29.62F
SUMMERVILLE    CLOUDY    57  55  94 W3        29.64S
BEAUFORT MCAS  CLOUDY    59  59 100 W10       29.66R FOG
BEAUFORT ARPT  CLOUDY    59  55  88 W15       29.66R
HILTON HEAD IS NOT AVBL
WALTERBORO     CLOUDY    57  55  94 W7        29.65R
ALLENDALE      CLOUDY    57  55  94 VRB3      29.66R

...SOUTHERN MIDLANDS AND PEE DEE...

CITY           SKY/WX    TMP DP  RH WIND       PRES   REMARKS
GEORGETOWN     CLOUDY    57  55  94 W7        29.62R
KINGSTREE      DRIZZLE   55  54  94 W5        29.61S
ORANGEBURG     CLOUDY    57  55  93 NW8       29.64S
BARNWELL       CLOUDY    57  57 100 W6        29.67R
AIKEN          CLOUDY    54  52  94 W6        29.70R
MANNING        LGT RAIN  55  54  94 W15       29.62S
COLUMBIA       CLOUDY    58  54  86 NW8       29.63F
SUMTER         CLOUDY    56  55  94 NW10      29.59S
FLORENCE       CLOUDY    57  57 100 W3        29.59F FOG
MYRTLE BEACH   CLOUDY    61  60  97 W9        29.60R FOG
N MYRTLE BEACH CLOUDY    61  61 100 W7        29.57R FOG

$$

GAZ063-065-086>088-099>101-113>116-118-119-134>141-150-251100-
...SOUTHEAST GEORGIA...

CITY           SKY/WX    TMP DP  RH WIND       PRES   REMARKS
SAVANNAH ARPT  CLOUDY    60  54  80 W9        29.68R
HUNTER AAF     CLOUDY    60  57  89 W14G23    29.65S
FORT STEWART   CLOUDY    61  54  79 W8        29.68R
STATESBORO     CLOUDY    58  58 100 NW5       29.69S
SYLVANIA       CLOUDY   N/A N/A N/A NW8       29.69S
CLAXTON        CLOUDY    59  59 100 SW9       29.71R

...CSRA...CENTRAL AND FAR SOUTHEAST GEORGIA...

CITY           SKY/WX    TMP DP  RH WIND       PRES   REMARKS
THOMSON        CLOUDY    55  53  95 N8        29.77R
AUGUSTA-BUSH   CLOUDY    59  55  87 NW12      29.68R
AUGUSTA-DANIEL CLOUDY    58  52  80 W7        29.69R
SWAINSBORO     CLOUDY    57  55  94 NW7       29.72R
VIDALIA        CLOUDY    59  55  88 NW7       29.71S
EASTMAN        CLOUDY    60  60 100 CALM      29.76R
HAZLEHURST     CLOUDY    59  59 100 CALM      29.71S
ALMA           PTCLDY    57  56  96 W5        29.72R
WAYCROSS       CLEAR     59  59 100 W7        29.73R
JESUP          PTSUNNY   59  54  82 W3        29.72R
BAXLEY         CLOUDY    59  59 100 W6        29.72R
BRUNSWICK      PTCLDY    61  57  88 W8        29.72R
SAINT SIMONS   MOCLDY    61  54  77 W9        29.71R

$$

SCZ027-028-034-036>038-045-046-048>050-GAZ119-141-251100-
...LAKE AND SUPPLEMENTAL COASTAL OBSERVATIONS...

STATION/POSITION TIME  TEMP    WIND        PRES    WAVE   SWELL
                       AIR SEA DIR/SP/G            HT/PER HT/PER/DIR
                 (UTC) (F)     (DEG/KT/KT) (MB)    (FT/S) (FT/S/D)
WINYAH BAY       0845   60     260/  4     1002.0
LAKE MURRAY      0920   55     320/  3/  6 1003.4
ACE BASIN NERRS  0845   60     260/  2     1003.0
FORT PULASKI     0948   61 74  300/ 13/ 16 1005.0R
SAPELO ISLAND    0900   62     270/  8     1005.0

$$

ANZ835-935-AMZ111-154-330-350-352-354-370-450-454-472-251100-
...C-MAN AND BUOY OBSERVATIONS...

STATION/POSITION TIME  TEMP    WIND        PRES    WAVE   SWELL
                       AIR SEA DIR/SP/G            HT/PER HT/PER/DIR
                 (UTC) (F)     (DEG/KT/KT) (MB)    (FT/S) (FT/S/D)
BUOY 41004       0950   67 72  260/ 17/ 21 1002.0S   7/ 8   5/130/ 8
BUOY 41008       0950   64 71  280/ 19/ 23 1004.7S   4/ 8   3/ 70/ 8
FOLLY BEACH CMAN 0900   62     270/  5/  6 1003.2F
CAPERS NEARSHORE 0908   66 71  290/ 12/ 17 1002.1F
FRIPP NEARSHORE  0908   62 71  270/ 14/ 19 1003.0S


STATION/POSITION TIME  TEMP    WIND        PRES    WAVE   SWELL
                       AIR SEA DIR/SP/G            HT/PER HT/PER/DIR
                 (UTC) (F)     (DEG/KT/KT) (MB)    (FT/S) (FT/S/D)
5E ST. MARYS GA  1000      72                N/A     3/ 8   2/ 90/11
FRYING PAN BUOY  0950   71 75  240/ 14/ 17 1001.0R   8/ 8   7/130/ 8
BUOY 41025       0950   74 77  220/ 21/ 29 1000.5R  14/11  11/130/11
CAPE LOOKOUT NC  0900   64     260/  5/  6  999.9R
BUOY 41002       0950   70 75  270/ 16/ 19 1004.1R  10/ 9   8/140/ 9
BUOY 41010       0950   72 78  260/ 21/ 27 1006.0R   7/ 7   3/ 70/11
ST AUGUSTINE FL  1000   58 73  270/  6/  7 1008.5R


$$




USA.gov is the U.S. government's official web portal to all federal, state and local government web resources and services.